Regional Weather Roundup
Issued by NWS

Home | Current Version | Previous Version | Text Only | Print | Product List | Glossary On
Versions: 1 2 3 4 5 6 7 8 9 10 11 12 13 14 15 16 17 18 19 20 21 22 23 24 25 26 27 28 29 30 31 32 33 34 35 36 37 38 39 40 41 42 43 44 45 46 47 48 49 50
000
ASUS43 KLOT 211408
RWRIL

ILLINOIS REGIONAL WEATHER ROUNDUP
NATIONAL WEATHER SERVICE CHICAGO/ROMEOVILLE IL
800 AM CST TUE NOV 21 2017

NOTE: "FAIR" INDICATES FEW OR NO CLOUDS BELOW 12,000 FEET WITH NO
SIGNIFICANT WEATHER AND/OR OBSTRUCTIONS TO VISIBILITY.

* THESE STATIONS ARE NOT UNDER NWS QUALITY CONTROL. THEY ALSO MAY NOT
  REPORT WEATHER SUCH AS PRECIPITATION OR FOG.

ILZ001-002-007-009-015-016-024-211500-
NORTHWEST ILLINOIS

CITY           SKY/WX    TMP DP  RH WIND       PRES   REMARKS
MOLINE         CLOUDY    44  27  51 NW17G25   29.82R
STERLING*      LGT RAIN  42  33  70 MISG      29.78
SAVANNA*       CLOUDY    41  26  53 W12G21    29.79R
$$

ILZ003-004-008-010-011-017-018-211500-
NORTH CENTRAL ILLINOIS

CITY           SKY/WX    TMP DP  RH WIND       PRES   REMARKS
ROCKFORD       LGT RAIN  43  28  55 W13       29.75R
FREEPORT*      CLOUDY    41  19  40 NW22G30   29.76R
ROCHELLE*      CLOUDY    40  34  80 W10       29.74R
DE KALB*       CLOUDY    42  33  70 W15       29.73R
PERU*          CLOUDY    41  32  71 SW10      29.77R
$$

ILZ005-006-012>014-019>023-211500-
NORTHEAST ILLINOIS

CITY           SKY/WX    TMP DP  RH WIND       PRES   REMARKS
CHICAGO-OHARE  CLOUDY    43  32  65 SW15      29.71R
CHICAGO-MIDWAY PTSUNNY   44  33  65 SW14      29.73R
AURORA         CLOUDY    40  33  76 SW10      29.73R
LANSING*       CLOUDY    40  34  80 SW14      29.74S
JOLIET*        CLOUDY    42  34  71 SW8       29.76R
WAUKEGAN       CLOUDY    44  33  65 SW12G20   29.66R
DUPAGE AIRPORT CLOUDY    41  33  73 SW15G23   29.71R
KANKAKEE*      MOSUNNY   39  32  74 SW13G20   29.79R WCI  32
WHEELING       CLOUDY    44  33  65 SW14      29.71R
MORRIS*        CLOUDY    42  32  70 SW12      29.75R
ROMEOVILLE*    PTSUNNY   41  33  73 SW13      29.75R
NORTHERLY ISL    N/A     43  31  63 SW13        N/A
$$

LMZ740>746-211500-
SOUTHERN LAKE MICHIGAN

STATION/POSITION SKY/WX   TEMP    WIND        PRES    VSBY  WAVE
                          AIR SEA DIR/SP/G                  HT/PER
                          (F)     (DEG/KT/KT) (MB)    (MI)  (FT/S)
SOUTHERN BUOY              47 48  260/ 25/ 29 1002.6          7/ 7
HARRISON CRIB              46     240/ 24/ 29   N/A
BURNHAM HARBOR             43     210/ 13/ 16   N/A
CALUMET HARBOR             42     200/ 12/ 17 1005.7R
BURNS HARBOR               43     210/ 18/ 24 1007.5R
MICHIGAN CITY              42     190/ 19/ 23   N/A
$$

ILZ025>027-034>036-040-047-049-050-058-095>099-211500-
WEST-CENTRAL ILLINOIS

CITY           SKY/WX    TMP DP  RH WIND       PRES   REMARKS
QUINCY         CLOUDY    44  33  65 W8        29.85R
GALESBURG*     CLOUDY    44  34  68 W12       29.84R
MACOMB*        CLOUDY    42  34  72 W12       29.86R
JACKSONVILLE*  CLOUDY    41  32  69 SW8       29.85R
PITTSFIELD*    CLOUDY    44  33  65 SW5       29.87R
$$

ILZ028>032-037-038-041>044-048-051>054-059>061-211500-
CENTRAL ILLINOIS

CITY           SKY/WX    TMP DP  RH WIND       PRES   REMARKS
PONTIAC        CLOUDY    41  34  76 SW16G22   29.79R
BLOOMINGTON    CLOUDY    39  32  76 SW16      29.82R WCI  30
DECATUR        SUNNY     41  31  67 SW13      29.85R
PEORIA         CLOUDY    39  33  79 W5        29.82R
LACON*         CLOUDY    41  33  73 SW7       29.80R
LINCOLN*       PTSUNNY   41  34  74 SW6       29.84R
SPRINGFIELD    CLOUDY    42  32  67 SW9       29.85R
TAYLORVILLE    SUNNY     39  32  73 S14       29.86R WCI  31
$$

ILZ033-039-045-046-055>057-062-063-211500-
EAST-CENTRAL ILLINOIS

CITY           SKY/WX    TMP DP  RH WIND       PRES   REMARKS
CHAMPAIGN      MOSUNNY   40  32  73 SW16      29.83R
DANVILLE*      SUNNY     39  30  70 SW20G25   29.80R WCI  30
RANTOUL*       CLOUDY    42  34  73 SW18      29.82R
MATTOON        SUNNY     40  31  70 S10       29.86R
PARIS*         SUNNY     41  32  70 S21       29.87R
$$

ILZ079-100>102-211500-
SOUTHWEST ILLINOIS

CITY           SKY/WX    TMP DP  RH WIND       PRES   REMARKS
ALTON          CLOUDY    39  32  75 S9        29.88R WCI  33
BELLEVILLE     CLOUDY    43  30  60 SW9       29.89R
CAHOKIA*       CLOUDY    43  30  60 S3        29.89R
SPARTA*        MOSUNNY   40  31  68 S12       29.93R
$$

ILZ064>066-069>071-074>076-080>082-084>086-088>090-092>094-211500-
SOUTH-CENTRAL ILLINOIS

CITY           SKY/WX    TMP DP  RH WIND       PRES   REMARKS
CARBONDALE     CLOUDY    42  30  62 S13       29.96R
CAIRO*         SUNNY     40  31  72 S10G16    30.00S
EFFINGHAM*     SUNNY     42  32  67 S8        29.91R
MARION         MOSUNNY   43  32  65 S12       29.97R
MT. VERNON     SUNNY     43  32  65 SW14      29.93R
CENTRALIA*     SUNNY     44  32  64 S15G22    29.90R
SALEM*         SUNNY     45  31  58 SW13      29.90R
METROPOLIS*    SUNNY     42  31  67 S9        30.00F
$$

ILZ067-068-072-073-078-083-087-091-211500-
SOUTHEAST ILLINOIS

CITY           SKY/WX    TMP DP  RH WIND       PRES   REMARKS
LAWRENCEVILLE  SUNNY     42  31  64 S10       29.94R
FLORA*         SUNNY     43  32  63 S15       29.91S
FAIRFIELD*     SUNNY     41  32  71 S3        29.92S
HARRISBURG*    SUNNY     43  31  62 SW12      29.97R
ROBINSON*      SUNNY     41  30  64 S10G17    29.91R
CARMI*         SUNNY     41  32  69 S10       29.95R
$$

ABBREVIATIONS USED IN REMARKS
   TC - TEMPERATURE IN CELSIUS
  WCI - WIND CHILL INDEX
   HX - HEAT INDEX
  VSB - VISIBILITY
$$




USA.gov is the U.S. government's official web portal to all federal, state and local government web resources and services.